Vorticity
nan nan nan nan nan nan nan nan nan nan nan nan nan nan nan nan nan nan nan nan nan nan nan nan nan nan nan nan nan nan nan nan nan nan nan nan nan nan nan nan nan nan nan
nan 9 8 7 9 8 6 7 9 8 9 10 10 9 9 8 9 8 7 7 8 7 8 8 8 8 8 9 9 8 9 9 9 9 7 11 10 9 9 9 11 10 nan
nan 9 8 8 9 8 7 7 8 9 9 9 9 9 8 9 8 8 9 9 8 8 8 7 10 7 8 9 9 9 8 9 9 10 8 8 9 10 11 11 9 10 nan
nan 9 8 9 8 8 8 8 8 9 9 10 10 9 8 9 9 9 9 8 8 8 9 9 9 8 8 7 10 9 9 9 8 7 9 10 9 8 9 8 9 11 nan
nan 8 9 9 9 9 10 9 9 9 9 10 9 10 10 8 9 10 9 9 8 7 8 11 10 11 9 4 5 10 9 8 8 9 9 10 8 9 10 9 9 9 nan
nan 9 9 9 9 9 9 9 9 9 11 10 10 10 7 10 13 10 8 7 10 10 7 8 11 12 12 12 8 7 5 6 9 10 9 9 10 10 10 9 8 7 nan
nan 10 9 9 9 10 10 9 10 10 10 10 10 10 9 11 15 11 7 8 11 8 8 6 9 13 12 12 12 9 9 9 10 9 8 8 10 10 7 10 11 9 nan
nan 9 10 10 9 9 10 9 9 11 10 8 10 8 7 13 18 12 4 1 8 12 9 11 11 10 11 11 10 10 10 10 11 9 8 8 9 10 9 9 9 9 nan
nan 10 10 9 10 9 10 9 8 8 10 10 9 10 8 14 13 6 6 10 11 10 11 13 10 10 12 9 8 9 8 10 14 11 10 10 11 12 11 8 12 10 nan
nan 10 10 10 10 10 11 10 9 9 9 10 10 11 11 15 16 10 3 8 10 9 13 14 12 11 13 6 6 10 9 12 10 9 10 11 12 15 16 12 9 10 nan
nan 11 10 12 12 10 9 12 12 10 10 9 10 12 12 10 16 16 2 5 10 11 10 10 14 16 12 9 8 9 13 13 10 8 8 9 9 12 12 13 11 9 nan
nan 11 14 12 10 14 13 10 12 11 10 8 9 10 12 15 15 12 7 8 10 8 10 11 17 16 12 13 12 11 12 7 9 9 8 9 11 10 9 10 12 11 nan
nan 10 11 11 10 14 13 9 10 10 9 10 10 10 10 9 14 17 11 8 8 7 15 14 13 13 11 11 14 13 7 6 9 9 9 10 10 8 9 10 11 12 nan
nan 16 13 13 14 11 10 10 10 10 10 12 11 9 10 9 8 12 11 10 8 10 14 12 9 8 9 10 10 10 8 10 9 9 10 9 9 11 11 11 9 10 nan
nan 14 14 18 16 4 12 20 15 13 17 12 11 13 11 11 13 14 10 9 11 12 6 7 9 9 9 8 10 11 9 9 10 9 10 10 9 10 10 10 10 10 nan
nan 15 14 12 9 12 9 4 12 25 28 17 1 7 13 18 20 14 9 12 15 7 3 10 10 11 10 10 9 9 11 10 10 10 10 11 10 10 9 10 11 10 nan
nan 17 10 12 11 11 9 7 1 1 -3 13 32 25 9 14 14 11 14 15 5 -3 6 12 11 11 10 10 10 10 11 13 12 11 11 10 10 10 10 10 10 10 nan
nan 11 23 10 6 12 11 13 10 10 0 -3 11 13 20 20 12 13 6 4 5 5 14 13 11 10 10 11 11 11 12 11 11 12 11 11 11 10 10 9 9 9 nan
nan 4 9 15 18 8 8 6 10 14 13 9 7 6 14 18 16 7 -1 5 9 8 10 11 11 11 11 12 11 12 12 10 10 10 9 10 10 10 10 10 10 12 nan
nan 21 19 6 12 9 10 10 13 13 7 9 12 8 8 7 11 5 7 12 11 11 11 11 11 11 12 12 11 11 10 10 10 10 11 10 11 10 10 9 10 11 nan
nan 15 9 15 11 11 13 11 9 11 10 10 10 11 13 12 11 8 8 10 10 11 11 11 11 11 12 11 11 11 10 10 10 11 11 11 11 11 11 10 10 10 nan
nan 13 12 12 11 11 10 11 13 12 10 8 10 14 12 10 13 11 10 10 11 11 11 12 13 13 12 10 9 10 11 10 10 11 11 12 11 10 10 10 10 10 nan
nan 12 11 11 10 9 10 11 11 9 12 12 13 10 7 10 11 12 11 9 11 11 11 11 11 12 12 12 11 11 11 11 11 11 12 12 10 10 10 10 9 9 nan
nan 10 11 13 15 14 12 10 10 13 11 10 11 11 11 10 11 11 10 11 11 12 12 11 12 11 9 9 13 13 11 13 14 14 12 10 10 10 10 11 11 10 nan
nan 12 11 11 13 13 12 13 12 15 13 11 11 11 12 11 11 12 11 12 11 12 12 11 13 14 13 11 10 10 13 13 11 10 10 12 11 10 9 10 9 10 nan
nan nan nan nan nan nan nan nan nan nan nan nan nan nan nan nan nan nan nan nan nan nan nan nan nan nan nan nan nan nan nan nan nan nan nan nan nan nan nan nan nan nan nan
CAPE
713 917 973 1110 1045 876 630 729 749 690 655 817 816 723 274 30 0 0 0 0 0 0 0 0 0 0 0 0 0 0 0 0 0 0 0 0 0 0 0 0 0 0 0
848 1011 958 948 1091 1184 930 762 921 877 606 729 659 670 369 87 17 6 0 0 0 0 0 0 0 0 0 0 0 0 0 0 0 0 0 0 0 0 0 0 0 0 0
1044 1172 1211 1203 1109 1236 1281 1127 962 1088 626 695 575 674 449 157 37 7 0 0 0 0 0 0 0 0 0 0 0 0 0 0 0 0 0 0 0 0 0 0 0 0 0
1206 1383 1433 1441 1485 1249 1249 1241 1270 1126 872 621 646 732 706 432 171 40 2 0 0 0 0 0 0 0 0 0 0 0 0 0 0 0 14 0 0 0 0 0 0 0 0
1279 1540 1607 1604 1673 1650 1509 1285 1211 1185 1089 816 566 617 769 641 351 188 97 51 3 0 0 0 0 0 0 0 0 0 0 0 0 12 29 0 0 0 0 0 0 0 0
1511 1631 1738 1851 1923 1906 1860 1642 1367 1270 1287 801 740 590 547 741 604 234 217 131 17 4 1 0 0 0 0 1 2 4 0 0 0 3 0 1 0 0 0 0 0 0 0
1754 1855 1935 1924 2109 2144 2077 1955 1703 1428 1514 942 742 624 568 578 516 172 119 166 34 4 42 13 0 0 3 20 22 0 0 0 0 0 0 0 0 0 0 0 0 0 0
1954 1984 2147 2203 2178 2261 2305 2233 2070 1689 1784 1139 879 545 638 641 104 80 175 151 80 107 64 12 0 0 0 14 12 7 0 0 1 0 0 0 0 0 0 0 0 0 0
2017 2140 2277 2414 2379 2439 2427 2483 2407 2156 1729 1669 1193 953 930 832 61 30 28 144 143 114 84 0 0 0 10 2 1 2 0 0 7 3 0 0 0 0 0 0 0 1 0
2220 2284 2442 2588 2525 2489 2527 2485 2548 2563 2141 1833 1666 1402 1303 974 1 1 28 227 193 65 0 0 1 21 6 0 0 0 0 0 0 0 0 0 0 0 0 0 0 0 0
2059 2380 2413 2613 2692 2574 2480 2479 2602 2619 2399 2174 2049 1680 1366 938 1 1 11 118 66 0 0 0 0 0 0 0 0 0 0 0 0 0 0 0 0 0 0 0 0 0 0
1597 1798 2182 2376 2669 2512 2475 2439 2532 2654 2513 2435 2099 872 689 69 2 0 0 1 0 0 0 0 0 0 0 0 1 0 0 0 0 0 0 0 0 0 0 0 0 0 0
1417 1522 1591 2096 2414 2332 2420 2552 2672 2710 2543 1992 1107 659 385 257 81 0 0 0 0 0 0 0 0 1 1 1 0 0 0 0 0 0 0 0 0 0 0 0 0 0 0
1159 1392 1506 1872 2275 2342 2534 2698 2672 2423 2188 1436 922 554 215 99 0 0 0 0 0 0 0 0 1 1 0 0 0 0 0 0 0 0 0 0 0 0 0 0 0 0 0
838 1114 1370 1776 2354 1953 1042 1629 2243 1177 1354 819 556 300 116 79 0 0 0 0 0 0 0 0 0 0 0 0 0 0 0 0 0 0 0 0 0 0 0 0 0 0 0
1693 2120 2125 2067 105 1 0 0 1 1 322 260 200 149 2 0 0 0 0 1 1 0 0 0 0 0 0 0 0 0 0 0 0 0 0 0 0 0 0 0 0 0 0
1202 2045 864 125 157 391 581 283 0 1 0 2 2 0 0 0 0 3 2 2 1 0 0 0 0 0 0 0 0 0 0 0 0 0 0 0 0 0 0 0 0 0 0
0 26 280 285 391 336 269 65 0 0 0 1 2 0 2 1 2 1 1 1 0 0 0 0 0 0 0 0 0 0 0 0 0 0 0 0 0 0 0 0 0 0 0
7 11 51 53 47 0 0 0 0 0 0 0 0 0 0 1 1 1 1 0 0 0 0 0 0 0 0 0 0 0 0 0 0 0 0 0 0 0 0 0 0 0 0
82 77 102 2 0 0 0 0 0 0 0 0 0 0 0 0 0 0 0 0 0 0 0 0 0 0 0 0 0 0 0 0 0 0 0 0 0 0 0 0 0 0 0
178 68 35 22 1 0 0 0 0 0 0 0 0 0 0 0 0 0 0 0 0 0 0 0 0 0 0 0 0 0 0 0 0 0 0 0 0 0 0 0 0 0 0
21 79 97 86 56 19 0 0 0 0 0 0 0 0 0 0 0 0 0 0 0 0 0 0 0 0 0 0 0 0 0 0 0 0 0 0 0 0 0 0 0 0 0
0 0 0 11 0 0 1 4 0 0 0 0 0 0 0 0 0 0 0 0 0 0 0 0 0 0 0 0 0 0 0 0 0 0 0 0 0 0 0 0 0 0 0
0 0 0 0 0 0 0 0 0 0 0 0 0 0 0 0 0 0 0 0 0 0 0 0 0 0 0 0 0 0 0 0 0 0 0 0 0 0 0 0 0 0 0
0 0 0 0 0 0 0 0 0 0 0 0 0 0 0 0 0 0 0 0 0 0 0 0 0 0 0 0 0 0 0 0 0 0 0 0 0 0 0 0 0 0 0
0 0 0 0 0 0 0 0 0 0 0 0 0 0 0 0 0 0 0 0 0 0 0 0 0 0 0 0 0 0 0 0 0 0 0 0 0 0 0 0 0 0 0